Flag for Romania Weather past 2 weeks in Bucharest, Romania

Now
77 °F

Passing clouds.


Feels Like: 79 °F
Forecast: 63 / 80 °F
Wind: 8 mph from Southwest

Location: Bucharest / Imh

Current Time: Sep 21, 2014 at 4:08:43 PM

Latest Report: Sep 21, 2014 at 3:30 PM


Visibility: N/A

Pressure: 29.89 "Hg

Humidity: 47%

Dew point: 55 °F

Location of BucharestLocation

Historic Weather in Bucharest — Graph

°F

Bucharest temperature yesterday

Maximum temperature yesterday: 77 °F (at 2:30 PM)
Minimum temperature yesterday: 48 °F (at 7:00 AM)
Average temperature yesterday: 63 °F

Past Weeks' High & Low Weather Summary

 TemperatureHumidityPressure
High86 °F (Sep 8, 3:30 PM)100% (Sep 13, 6:00 AM)30.27 "Hg (Sep 13, 6:00 AM)
Low48 °F (Sep 19, 6:30 AM)18% (Sep 11, 5:00 PM)29.86 "Hg (Sep 6, 3:30 PM)
Average69 °F55%30.03 "Hg
* Reported Sep 6 3:00 PM — Sep 21 3:00 PM, Bucharest, Weather by CustomWeather, © 2014

Note: Actual official high and low records may vary slightly from our data, if they occured in-between our weather recording intervals... More about our weather records

Advertising

Bucharest weather history for previous 24 hours

 ConditionsComfort  
Time TempWeatherWind HumidityBarometerVisibility
3:00 PM
Sep 21
77 °FPassing clouds.6 mph47%29.89 "HgN/A
2:30 PM77 °FPassing clouds.8 mph44%29.89 "HgN/A
2:00 PM75 °FPassing clouds.8 mph47%29.92 "HgN/A
1:30 PM75 °FPassing clouds.7 mph47%29.92 "HgN/A
1:00 PM75 °FPassing clouds.6 mph44%29.92 "HgN/A
12:30 PM73 °FPassing clouds.7 mph47%29.92 "HgN/A
12:00 PM73 °FPassing clouds.6 mph47%29.92 "HgN/A
11:30 AM72 °FPassing clouds.5 mph53%29.95 "HgN/A
11:00 AM70 °FPassing clouds.7 mph57%29.95 "HgN/A
10:30 AM68 °FSunny.7 mph56%29.95 "Hg10 mi
10:00 AM66 °FPassing clouds.5 mph64%29.95 "HgN/A
9:30 AM64 °FPassing clouds.5 mph73%29.95 "HgN/A
9:00 AM64 °FSunny.7 mph73%29.95 "Hg10 mi
8:30 AM63 °FSunny.5 mph77%29.95 "Hg10 mi
8:00 AM63 °FSunny.5 mph77%29.95 "Hg10 mi
7:30 AM63 °FClear.2 mph77%29.95 "Hg10 mi
7:00 AM63 °FClear.3 mph83%29.95 "Hg10 mi
6:30 AM63 °FClear.3 mph77%29.95 "Hg10 mi
6:00 AM63 °FPassing clouds.2 mph77%29.95 "HgN/A
5:30 AM63 °FPassing clouds.5 mph77%29.98 "HgN/A
5:00 AM63 °FLight rain. Passing clouds.3 mph77%29.98 "HgN/A
4:30 AM63 °FClear.2 mph77%29.95 "Hg10 mi
4:00 AM63 °FClear.No wind77%29.98 "Hg10 mi
3:30 AM63 °FClear.No wind73%29.98 "Hg10 mi
3:00 AM63 °FClear.1 mph73%29.98 "Hg10 mi
2:30 AM63 °FClear.1 mph73%29.98 "Hg10 mi
2:00 AM64 °FClear.No wind68%29.98 "Hg10 mi
1:30 AM64 °FClear.3 mph64%29.98 "Hg10 mi
1:00 AM64 °FClear.2 mph68%30.01 "Hg10 mi
12:30 AM64 °FPassing clouds.3 mph64%30.01 "HgN/A
12:00 AM66 °FPassing clouds.6 mph56%30.01 "HgN/A
11:30 PM
Sep 20
66 °FPassing clouds.3 mph52%30.01 "HgN/A
11:00 PM66 °FPassing clouds.1 mph56%30.01 "HgN/A
10:30 PM68 °FClear.2 mph49%30.01 "Hg10 mi
10:00 PM68 °FClear.No wind46%30.04 "Hg10 mi
9:30 PM68 °FClear.No wind49%30.04 "Hg10 mi
9:00 PM68 °FClear.1 mph49%30.04 "Hg10 mi
8:30 PM68 °FClear.3 mph46%30.04 "Hg10 mi
4:30 PM77 °FPassing clouds.5 mph22%30.07 "HgN/A
4:00 PM77 °FSunny.2 mph22%30.07 "Hg10 mi
Weather by CustomWeather, © 2014

See weather overviewHow to use our weather pages